Location: Earls Croome
(52.0667°N, 2.2000°W)
Time: 13:12:58
(UTC+00:00)

Okean O Rocket - Pass Details

Date: 17 November 2019
Orbit: 622 x 646 km, 98.2° (Epoch: 05 December)

Event Time Altitude Azimuth Distance (km) Brightness Sun altitude
Rises 05:38:32 0° 17° (NNE) 2,919 5.1 -17.1°
Reaches altitude 10° 05:40:46 10° 21° (NNE) 2,006 4.3 -16.8°
Maximum altitude 05:45:05 60° 101° (ESE) 716 2.2 -16.1°
Drops below altitude 10° 05:49:22 10° 183° (S) 1,991 4.3 -15.5°
Sets 05:51:34 0° 187° (S) 2,894 5.1 -15.1°
